TKJ32 LDSP-LTFJ

Flight info

Callsign TKJ32
Flight time 0h 56m
Altitude 37000
Route KENEM1W/05 KENEM Y88 KEB DCT MITNO DCT NISVA DCT BUFRA DCT ADORU UM19 IBODU IBODU1G
Aircraft B738/M-SDE2E3FGHIRWXY/LB1

Departure

Time 2026-04-28 21:09
Airport Split Saint Jerome Airport (LDSP)

Arrival

Time 2026-04-28 22:05
Airport Istanbul Sabiha Gökçen International Airport (LTFJ)
Time Latitude Longitude Altitude Speed Heading
2026-04-28 20:55 43.53830 16.30045 66 ft 0 kts 115°
2026-04-28 21:04 43.53833 16.30036 67 ft 2 kts 118°
2026-04-28 21:04 43.53842 16.30017 57 ft 2 kts 128°
2026-04-28 21:04 43.53853 16.30001 64 ft 2 kts 154°
2026-04-28 21:05 43.53869 16.29999 66 ft 2 kts 211°
2026-04-28 21:05 43.53878 16.30009 65 ft 1 kts 230°
2026-04-28 21:05 43.53879 16.30010 65 ft 0 kts 231°
2026-04-28 21:06 43.53863 16.29983 60 ft 14 kts 230°
2026-04-28 21:06 43.53756 16.29792 72 ft 32 kts 232°
2026-04-28 21:06 43.53689 16.29642 70 ft 17 kts 265°
2026-04-28 21:07 43.53655 16.29369 71 ft 42 kts 234°
2026-04-28 21:07 43.53445 16.28994 68 ft 50 kts 232°
2026-04-28 21:07 43.53268 16.28677 81 ft 20 kts 232°
2026-04-28 21:07 43.53203 16.28608 83 ft 1 kts 262°
2026-04-28 21:08 43.53225 16.28601 82 ft 7 kts 30°
2026-04-28 21:08 43.53257 16.28654 79 ft 33 kts 52°
2026-04-28 21:08 43.53580 16.29235 69 ft 116 kts 52°
2026-04-28 21:08 43.54221 16.30380 94 ft 181 kts 52°
2026-04-28 21:09 43.54998 16.31848 865 ft 193 kts 59°
2026-04-28 21:09 43.55232 16.33592 1999 ft 185 kts 101°
2026-04-28 21:09 43.54664 16.35194 2930 ft 191 kts 133°
2026-04-28 21:09 43.53567 16.36289 3712 ft 199 kts 152°
2026-04-28 21:10 43.52314 16.37173 4474 ft 204 kts 153°
2026-04-28 21:10 43.51040 16.38076 5142 ft 208 kts 151°
2026-04-28 21:10 43.50003 16.39579 5335 ft 234 kts 111°
2026-04-28 21:10 43.49655 16.41897 5579 ft 263 kts 95°
2026-04-28 21:11 43.49537 16.44487 6193 ft 276 kts 92°
2026-04-28 21:11 43.49458 16.47159 7012 ft 282 kts 92°
2026-04-28 21:11 43.49374 16.49840 7847 ft 286 kts 92°
2026-04-28 21:11 43.49275 16.52592 8682 ft 291 kts 93°
2026-04-28 21:12 43.49159 16.55395 9555 ft 296 kts 93°
2026-04-28 21:12 43.49029 16.58256 10411 ft 302 kts 93°
2026-04-28 21:12 43.48885 16.61240 10735 ft 325 kts 94°
2026-04-28 21:12 43.48719 16.64477 10943 ft 351 kts 94°
2026-04-28 21:13 43.48535 16.67944 11207 ft 373 kts 94°
2026-04-28 21:13 43.48339 16.71570 11797 ft 383 kts 94°
2026-04-28 21:13 43.48133 16.75253 12529 ft 387 kts 94°
2026-04-28 21:13 43.47921 16.78968 13295 ft 391 kts 94°
2026-04-28 21:14 43.47705 16.82718 13997 ft 396 kts 94°
2026-04-28 21:14 43.47487 16.86474 14618 ft 401 kts 94°
2026-04-28 21:14 43.47263 16.90334 15269 ft 406 kts 94°
2026-04-28 21:14 43.47034 16.94237 15880 ft 412 kts 94°
2026-04-28 21:15 43.46800 16.98197 16494 ft 417 kts 94°
2026-04-28 21:15 43.46562 17.02199 17101 ft 422 kts 94°
2026-04-28 21:15 43.46321 17.06251 17706 ft 427 kts 94°
2026-04-28 21:15 43.46074 17.10360 18284 ft 432 kts 94°
2026-04-28 21:16 43.45823 17.14510 18799 ft 437 kts 94°
2026-04-28 21:16 43.45567 17.18704 19317 ft 441 kts 94°
2026-04-28 21:16 43.45307 17.22938 19825 ft 445 kts 94°
2026-04-28 21:16 43.45047 17.27147 20328 ft 449 kts 94°
2026-04-28 21:17 43.44780 17.31461 20817 ft 453 kts 94°
2026-04-28 21:17 43.44510 17.35801 21293 ft 457 kts 94°
2026-04-28 21:17 43.44235 17.40189 21779 ft 461 kts 94°
2026-04-28 21:17 43.43957 17.44613 22237 ft 465 kts 94°
2026-04-28 21:18 43.43674 17.49061 22682 ft 469 kts 94°
2026-04-28 21:18 43.43387 17.53554 23142 ft 473 kts 94°
2026-04-28 21:18 43.43100 17.58014 23564 ft 476 kts 94°
2026-04-28 21:18 43.42805 17.62575 23936 ft 480 kts 94°
2026-04-28 21:19 43.42507 17.67155 24336 ft 482 kts 94°
2026-04-28 21:19 43.42206 17.71754 24746 ft 484 kts 94°
2026-04-28 21:19 43.41901 17.76380 25143 ft 486 kts 94°
2026-04-28 21:19 43.41593 17.81027 25510 ft 488 kts 94°
2026-04-28 21:20 43.41282 17.85686 25854 ft 491 kts 94°
2026-04-28 21:20 43.40967 17.90366 26201 ft 493 kts 94°
2026-04-28 21:20 43.40649 17.95079 26563 ft 496 kts 94°
2026-04-28 21:20 43.40327 17.99814 26904 ft 498 kts 94°
2026-04-28 21:21 43.40001 18.04576 27236 ft 500 kts 94°
2026-04-28 21:21 43.39673 18.09346 27558 ft 502 kts 94°
2026-04-28 21:21 43.39340 18.14150 27873 ft 505 kts 94°
2026-04-28 21:21 43.39005 18.18961 28204 ft 507 kts 94°
2026-04-28 21:22 43.38671 18.23726 28522 ft 508 kts 94°
2026-04-28 21:22 43.38330 18.28556 28968 ft 507 kts 94°
2026-04-28 21:22 43.37987 18.33373 29479 ft 505 kts 94°
2026-04-28 21:22 43.37756 18.36615 29795 ft 503 kts 94°
2026-04-28 21:23 43.37300 18.42959 30350 ft 503 kts 94°
2026-04-28 21:23 43.36956 18.47733 30693 ft 502 kts 94°
2026-04-28 21:23 43.36609 18.52505 31054 ft 501 kts 94°
2026-04-28 21:23 43.36261 18.57270 31427 ft 500 kts 94°
2026-04-28 21:24 43.35911 18.62027 31792 ft 499 kts 94°
2026-04-28 21:24 43.35561 18.66765 32188 ft 498 kts 94°
2026-04-28 21:24 43.35209 18.71500 32562 ft 497 kts 94°
2026-04-28 21:24 43.34855 18.76228 32862 ft 498 kts 94°
2026-04-28 21:25 43.34500 18.80959 33193 ft 498 kts 94°
2026-04-28 21:25 43.34142 18.85686 33549 ft 497 kts 94°
2026-04-28 21:25 43.33784 18.90398 33908 ft 496 kts 94°
2026-04-28 21:25 43.33424 18.95106 34215 ft 495 kts 93°
2026-04-28 21:26 43.33062 18.99809 34462 ft 496 kts 94°
2026-04-28 21:26 43.32699 19.04518 34680 ft 497 kts 94°
2026-04-28 21:26 43.32332 19.09237 34925 ft 497 kts 94°
2026-04-28 21:26 43.31963 19.13958 35164 ft 497 kts 94°
2026-04-28 21:27 43.31592 19.18677 35390 ft 497 kts 94°
2026-04-28 21:27 43.31224 19.23333 35625 ft 497 kts 94°
2026-04-28 21:27 43.30850 19.28050 35869 ft 497 kts 94°
2026-04-28 21:27 43.30473 19.32773 36110 ft 497 kts 94°
2026-04-28 21:28 43.30095 19.37486 36362 ft 497 kts 94°
2026-04-28 21:28 43.29715 19.42198 36593 ft 497 kts 94°
2026-04-28 21:28 43.29334 19.46890 36824 ft 497 kts 95°
2026-04-28 21:28 43.28949 19.51618 37033 ft 496 kts 95°
2026-04-28 21:29 43.28174 19.61056 37123 ft 499 kts 95°
2026-04-28 21:29 43.27389 19.70520 37120 ft 498 kts 95°
2026-04-28 21:30 43.26598 19.79940 37121 ft 496 kts 95°
2026-04-28 21:30 43.25809 19.89269 37126 ft 493 kts 95°
2026-04-28 21:31 43.25011 19.98605 37133 ft 492 kts 95°
2026-04-28 21:31 43.24208 20.07909 37119 ft 492 kts 95°
2026-04-28 21:32 43.23395 20.17236 37124 ft 493 kts 95°
2026-04-28 21:32 43.22573 20.26582 37124 ft 494 kts 95°
2026-04-28 21:33 43.21741 20.35946 37129 ft 496 kts 95°
2026-04-28 21:33 43.20903 20.45295 37127 ft 497 kts 95°
2026-04-28 21:34 43.20049 20.54728 37121 ft 499 kts 95°
2026-04-28 21:34 43.19187 20.64174 37129 ft 500 kts 95°
2026-04-28 21:35 43.18313 20.73653 37126 ft 501 kts 95°
2026-04-28 21:35 43.17430 20.83131 37130 ft 501 kts 95°
2026-04-28 21:36 43.16541 20.92597 37119 ft 501 kts 95°
2026-04-28 21:36 43.15797 21.00449 37124 ft 499 kts 96°
2026-04-28 21:37 43.14899 21.09864 37118 ft 498 kts 96°
2026-04-28 21:37 43.13845 21.20792 37119 ft 497 kts 96°
2026-04-28 21:38 43.12933 21.30164 37115 ft 496 kts 96°
2026-04-28 21:38 43.12169 21.37951 37108 ft 495 kts 96°
2026-04-28 21:39 43.11244 21.47314 37114 ft 496 kts 96°
2026-04-28 21:39 43.10312 21.56671 37105 ft 496 kts 96°
2026-04-28 21:40 43.09371 21.66022 37101 ft 496 kts 96°
2026-04-28 21:40 43.08428 21.75325 37097 ft 497 kts 96°
2026-04-28 21:41 43.07470 21.84695 37095 ft 497 kts 96°
2026-04-28 21:41 43.06503 21.94079 37093 ft 497 kts 96°
2026-04-28 21:42 43.05528 22.03460 37101 ft 498 kts 96°
2026-04-28 21:42 43.04544 22.12851 37091 ft 499 kts 96°
2026-04-28 21:43 43.03550 22.22261 37088 ft 500 kts 96°
2026-04-28 21:43 43.02555 22.31604 37104 ft 500 kts 96°
2026-04-28 21:44 43.01544 22.41028 37098 ft 501 kts 96°
2026-04-28 21:44 43.00526 22.50440 37107 ft 501 kts 96°
2026-04-28 21:45 42.99500 22.59847 37106 ft 500 kts 96°
2026-04-28 21:45 42.98467 22.69259 37110 ft 500 kts 96°
2026-04-28 21:46 42.97421 22.78654 37093 ft 500 kts 98°
2026-04-28 21:46 42.95586 22.87822 37114 ft 501 kts 107°
2026-04-28 21:47 42.93402 22.96861 37095 ft 501 kts 107°
2026-04-28 21:47 42.91239 23.05838 37110 ft 501 kts 107°
2026-04-28 21:48 42.89095 23.14893 37103 ft 500 kts 107°
2026-04-28 21:48 42.86969 23.23927 37126 ft 500 kts 107°
2026-04-28 21:49 42.84315 23.35156 37116 ft 500 kts 107°
2026-04-28 21:49 42.75697 23.71183 37130 ft 500 kts 107°
2026-04-28 21:50 42.66847 24.07598 37110 ft 499 kts 108°
2026-04-28 21:50 42.49157 24.78385 37094 ft 498 kts 110°
2026-04-28 21:51 42.25209 25.46520 37104 ft 498 kts 115°
2026-04-28 21:51 42.02365 26.14193 37130 ft 500 kts 115°
2026-04-28 21:52 41.75906 26.79674 37099 ft 500 kts 134°
2026-04-28 21:52 41.56067 27.05196 34551 ft 498 kts 131°
2026-04-28 21:52 41.37942 27.32849 29322 ft 490 kts 134°
2026-04-28 21:53 41.18971 27.57903 24016 ft 462 kts 123°
2026-04-28 21:53 41.14208 27.87876 20746 ft 404 kts 97°
2026-04-28 21:53 41.04733 28.13896 17561 ft 375 kts 120°
2026-04-28 21:53 40.93779 28.25827 15602 ft 331 kts 197°
2026-04-28 21:54 40.85232 28.24964 14626 ft 331 kts 145°
2026-04-28 21:54 40.79738 28.34544 13791 ft 328 kts 127°
2026-04-28 21:54 40.74131 28.44114 12750 ft 328 kts 127°
2026-04-28 21:54 40.68691 28.53479 11717 ft 322 kts 127°
2026-04-28 21:55 40.63334 28.62718 10696 ft 311 kts 127°
2026-04-28 21:55 40.58106 28.71470 9680 ft 298 kts 133°
2026-04-28 21:55 40.52356 28.78937 8835 ft 276 kts 124°
2026-04-28 21:55 40.49129 28.87090 8849 ft 226 kts 115°
2026-04-28 21:56 40.47628 28.95138 8888 ft 235 kts 97°
2026-04-28 21:56 40.46946 29.01327 8932 ft 254 kts 84°
2026-04-28 21:56 40.47346 29.03588 8573 ft 259 kts 59°
2026-04-28 21:56 40.48615 29.05244 7802 ft 262 kts 25°
2026-04-28 21:57 40.50393 29.05810 7067 ft 270 kts
2026-04-28 21:57 40.52322 29.05669 6340 ft 287 kts 353°
2026-04-28 21:57 40.54318 29.05319 5980 ft 295 kts 352°
2026-04-28 21:57 40.56446 29.04917 5740 ft 323 kts 352°
2026-04-28 21:58 40.58709 29.04502 5494 ft 331 kts 352°
2026-04-28 21:58 40.61000 29.04101 5237 ft 331 kts 353°
2026-04-28 21:58 40.63276 29.03718 4989 ft 330 kts 353°
2026-04-28 21:58 40.65549 29.03344 4722 ft 329 kts 353°
2026-04-28 21:59 40.67813 29.02977 4448 ft 327 kts 353°
2026-04-28 21:59 40.70108 29.02606 4231 ft 337 kts 353°
2026-04-28 21:59 40.72429 29.02231 4028 ft 330 kts 353°
2026-04-28 22:00 40.76687 29.02574 3979 ft 293 kts 24°
2026-04-28 22:00 40.78389 29.03959 3729 ft 286 kts 41°
2026-04-28 22:00 40.79708 29.05860 3494 ft 277 kts 51°
2026-04-28 22:00 40.80863 29.07826 3240 ft 263 kts 52°
2026-04-28 22:01 40.81931 29.09686 3055 ft 249 kts 54°
2026-04-28 22:01 40.82796 29.11587 2984 ft 228 kts 63°
2026-04-28 22:01 40.83439 29.13343 2974 ft 200 kts 64°
2026-04-28 22:01 40.83995 29.14895 2960 ft 173 kts 64°
2026-04-28 22:02 40.84505 29.16299 2865 ft 169 kts 64°
2026-04-28 22:02 40.85004 29.17666 2628 ft 163 kts 64°
2026-04-28 22:02 40.85483 29.18975 2412 ft 148 kts 64°
2026-04-28 22:02 40.85902 29.20121 2139 ft 134 kts 64°
2026-04-28 22:03 40.86305 29.21216 1935 ft 131 kts 65°
2026-04-28 22:03 40.86702 29.22305 1709 ft 130 kts 65°
2026-04-28 22:03 40.87069 29.23383 1510 ft 130 kts 67°
2026-04-28 22:03 40.87451 29.24480 1309 ft 130 kts 64°
2026-04-28 22:04 40.87860 29.25530 1110 ft 128 kts 62°
2026-04-28 22:04 40.88253 29.26589 855 ft 131 kts 63°
2026-04-28 22:04 40.88645 29.27665 671 ft 130 kts 62°
2026-04-28 22:04 40.89041 29.28731 462 ft 129 kts 62°
2026-04-28 22:05 40.89433 29.29782 324 ft 125 kts 62°
2026-04-28 22:05 40.89783 29.30728 320 ft 91 kts 64°
2026-04-28 22:05 40.89984 29.31268 317 ft 51 kts 63°
2026-04-28 22:05 40.90169 29.31631 319 ft 45 kts 39°
2026-04-28 22:06 40.90328 29.31708 320 ft 13 kts 300°
2026-04-28 22:06 40.90306 29.31538 320 ft 29 kts 279°
2026-04-28 22:06 40.90449 29.31463 320 ft 17 kts 46°
2026-04-28 22:06 40.90507 29.31478 320 ft 14 kts 336°
2026-04-28 22:07 40.90536 29.31461 320 ft 0 kts 335°